Time,TemperatureF,DewpointF,PressureIn,WindDirection,WindDirectionDegrees,WindSpeedMPH,WindSpeedGustMPH,Humidity,HourlyPrecipIn,Conditions,Clouds,dailyrainin,SoftwareType,DateUTC
2013-04-04 00:02:00,44.0,36.0,-100.00,South,170,14.0,22.0,74,0.00,,,0.00,,2013-04-04 00:02:00,
2013-04-04 00:12:00,44.0,37.0,-100.00,South,170,12.0,22.0,75,0.00,,,0.00,,2013-04-04 00:12:00,
2013-04-04 00:22:00,44.0,37.0,-100.00,South,170,12.0,19.0,77,0.00,,,0.00,,2013-04-04 00:22:00,
2013-04-04 00:32:00,43.0,37.0,-100.00,SSE,165,12.0,21.0,78,0.00,,,0.00,,2013-04-04 00:32:00,
2013-04-04 00:43:00,43.0,37.0,-100.00,South,175,11.0,18.0,79,0.00,,,0.00,,2013-04-04 00:43:00,
2013-04-04 00:52:00,43.0,37.0,-100.00,SSE,165,12.0,19.0,80,0.00,,,0.00,,2013-04-04 00:52:00,
2013-04-04 01:02:00,42.0,37.0,-100.00,South,170,12.0,18.0,81,0.00,,,0.00,,2013-04-04 01:02:00,
2013-04-04 01:12:00,42.0,37.0,-100.00,SSE,165,12.0,21.0,83,0.00,,,0.00,,2013-04-04 01:12:00,
2013-04-04 01:22:00,42.0,37.0,-100.00,South,170,13.0,21.0,83,0.00,,,0.00,,2013-04-04 01:22:00,
2013-04-04 01:32:00,42.0,37.0,-100.00,SSE,165,12.0,18.0,84,0.00,,,0.00,,2013-04-04 01:32:00,
2013-04-04 01:43:00,42.0,37.0,-100.00,SSE,160,12.0,19.0,84,0.00,,,0.00,,2013-04-04 01:43:00,
2013-04-04 01:52:00,42.0,37.0,-100.00,SSE,165,13.0,19.0,85,0.00,,,0.00,,2013-04-04 01:52:00,
2013-04-04 02:02:00,41.0,37.0,-100.00,South,170,13.0,21.0,85,0.00,,,0.00,,2013-04-04 02:02:00,
2013-04-04 02:12:00,41.0,37.0,-100.00,SSE,165,11.0,21.0,86,0.00,,,0.00,,2013-04-04 02:12:00,
2013-04-04 02:22:00,41.0,37.0,-100.00,SSE,165,13.0,19.0,87,0.00,,,0.00,,2013-04-04 02:22:00,
2013-04-04 02:32:00,41.0,37.0,-100.00,South,170,13.0,21.0,87,0.00,,,0.00,,2013-04-04 02:32:00,
2013-04-04 02:42:00,41.0,37.0,-100.00,South,170,13.0,21.0,87,0.00,,,0.00,,2013-04-04 02:42:00,
2013-04-04 02:52:00,41.0,37.0,-100.00,South,170,13.0,21.0,87,0.00,,,0.00,,2013-04-04 02:52:00,
2013-04-04 03:02:00,41.0,37.0,-100.00,South,185,14.0,21.0,88,0.00,,,0.00,,2013-04-04 03:02:00,
2013-04-04 03:12:00,41.0,37.0,-100.00,South,185,15.0,23.0,87,0.00,,,0.00,,2013-04-04 03:12:00,
2013-04-04 03:22:00,41.0,37.0,-100.00,South,180,17.0,28.0,86,0.00,,,0.00,,2013-04-04 03:22:00,
2013-04-04 03:33:00,41.0,37.0,-100.00,South,185,17.0,26.0,86,0.00,,,0.00,,2013-04-04 03:33:00,
2013-04-04 03:43:00,41.0,37.0,-100.00,South,185,17.0,26.0,86,0.00,,,0.00,,2013-04-04 03:43:00,
2013-04-04 03:53:00,41.0,37.0,-100.00,South,190,16.0,26.0,86,0.00,,,0.00,,2013-04-04 03:53:00,
2013-04-04 04:02:00,41.0,37.0,-100.00,SSW,195,18.0,29.0,86,0.00,,,0.00,,2013-04-04 04:02:00,
2013-04-04 04:12:00,41.0,37.0,-100.00,South,190,18.0,29.0,86,0.00,,,0.00,,2013-04-04 04:12:00,
2013-04-04 04:23:00,42.0,37.0,-100.00,South,190,17.0,29.0,85,0.00,,,0.00,,2013-04-04 04:23:00,
2013-04-04 04:33:00,41.0,37.0,-100.00,SW,220,15.0,27.0,85,0.00,,,0.00,,2013-04-04 04:33:00,
2013-04-04 04:43:00,42.0,37.0,-100.00,SSW,205,21.0,29.0,83,0.00,,,0.00,,2013-04-04 04:43:00,
2013-04-04 04:52:00,42.0,37.0,-100.00,SSW,210,18.0,29.0,81,0.00,,,0.00,,2013-04-04 04:52:00,
2013-04-04 05:02:00,42.0,36.0,-100.00,SSW,205,16.0,34.0,80,0.00,,,0.00,,2013-04-04 05:02:00,
2013-04-04 05:12:00,42.0,36.0,-100.00,SSW,200,17.0,27.0,80,0.00,,,0.00,,2013-04-04 05:12:00,
2013-04-04 05:23:00,42.0,36.0,-100.00,SSW,205,19.0,31.0,80,0.00,,,0.00,,2013-04-04 05:23:00,
2013-04-04 05:32:00,42.0,36.0,-100.00,SSW,205,17.0,31.0,79,0.00,,,0.00,,2013-04-04 05:32:00,
2013-04-04 05:42:00,42.0,36.0,-100.00,SSW,195,19.0,26.0,79,0.00,,,0.00,,2013-04-04 05:42:00,
2013-04-04 05:52:00,42.0,36.0,-100.00,SSW,200,16.0,24.0,79,0.00,,,0.00,,2013-04-04 05:52:00,
2013-04-04 06:02:00,42.0,36.0,-100.00,SSW,210,16.0,24.0,77,0.00,,,0.00,,2013-04-04 06:02:00,
2013-04-04 06:12:00,42.0,36.0,-100.00,SSW,205,13.0,24.0,78,0.00,,,0.00,,2013-04-04 06:12:00,
2013-04-04 06:22:00,42.0,36.0,-100.00,SW,220,14.0,22.0,77,0.00,,,0.00,,2013-04-04 06:22:00,
2013-04-04 06:32:00,42.0,36.0,-100.00,SW,220,14.0,24.0,76,0.00,,,0.00,,2013-04-04 06:32:00,
2013-04-04 06:42:00,42.0,36.0,-100.00,SW,215,11.0,20.0,76,0.00,,,0.00,,2013-04-04 06:42:00,
2013-04-04 06:52:00,43.0,36.0,-100.00,SW,215,17.0,32.0,73,0.00,,,0.00,,2013-04-04 06:52:00,
2013-04-04 07:02:00,43.0,36.0,-100.00,SW,215,19.0,29.0,73,0.00,,,0.00,,2013-04-04 07:02:00,
2013-04-04 07:12:00,43.0,36.0,-100.00,SW,215,16.0,29.0,73,0.00,,,0.00,,2013-04-04 07:12:00,
2013-04-04 07:22:00,43.0,36.0,-100.00,SSW,210,17.0,29.0,75,0.00,,,0.00,,2013-04-04 07:22:00,
2013-04-04 07:32:00,43.0,36.0,-100.00,SSW,205,17.0,28.0,75,0.00,,,0.00,,2013-04-04 07:32:00,
2013-04-04 07:42:00,42.0,36.0,-100.00,SW,215,16.0,28.0,76,0.00,,,0.00,,2013-04-04 07:42:00,
2013-04-04 07:52:00,42.0,36.0,-100.00,SW,220,16.0,26.0,77,0.00,,,0.00,,2013-04-04 07:52:00,
2013-04-04 08:02:00,42.0,36.0,-100.00,SW,215,12.0,24.0,79,0.00,,,0.00,,2013-04-04 08:02:00,
2013-04-04 08:12:00,42.0,36.0,-100.00,SW,215,13.0,19.0,79,0.00,,,0.00,,2013-04-04 08:12:00,
2013-04-04 08:22:00,42.0,36.0,-100.00,SSW,210,13.0,20.0,80,0.00,,,0.00,,2013-04-04 08:22:00,
2013-04-04 08:32:00,41.0,36.0,-100.00,WSW,250,11.0,17.0,81,0.00,,,0.00,,2013-04-04 08:32:00,
2013-04-04 08:52:00,41.0,36.0,-100.00,SW,235,11.0,14.0,84,0.00,,,0.00,,2013-04-04 08:52:00,
2013-04-04 09:02:00,40.0,36.0,-100.00,WSW,240,11.0,17.0,85,0.00,,,0.00,,2013-04-04 09:02:00,
2013-04-04 09:12:00,40.0,37.0,-100.00,WSW,245,12.0,16.0,87,0.00,,,0.00,,2013-04-04 09:12:00,
2013-04-04 09:22:00,40.0,37.0,-100.00,WSW,240,9.0,16.0,88,0.00,,,0.00,,2013-04-04 09:22:00,
2013-04-04 09:33:00,39.0,36.0,-100.00,WSW,250,9.0,13.0,89,0.00,,,0.00,,2013-04-04 09:33:00,
2013-04-04 09:43:00,39.0,36.0,-100.00,WSW,250,9.0,15.0,89,0.00,,,0.00,,2013-04-04 09:43:00,
2013-04-04 09:53:00,39.0,36.0,-100.00,West,265,9.0,14.0,90,0.00,,,0.00,,2013-04-04 09:53:00,
2013-04-04 10:03:00,39.0,37.0,-100.00,West,270,11.0,15.0,92,0.00,,,0.00,,2013-04-04 10:03:00,
2013-04-04 10:12:00,38.0,37.0,-100.00,West,270,9.0,15.0,93,0.00,,,0.00,,2013-04-04 10:12:00,
2013-04-04 10:23:00,38.0,36.0,-100.00,West,280,7.0,11.0,94,0.00,,,0.00,,2013-04-04 10:23:00,
2013-04-04 10:33:00,38.0,36.0,-100.00,West,275,7.0,11.0,95,0.00,,,0.00,,2013-04-04 10:33:00,
2013-04-04 10:42:00,37.0,36.0,-100.00,West,275,7.0,9.0,96,0.00,,,0.00,,2013-04-04 10:42:00,
2013-04-04 10:53:00,36.0,36.0,-100.00,West,270,7.0,11.0,96,0.00,,,0.00,,2013-04-04 10:53:00,
2013-04-04 11:02:00,36.0,36.0,-100.00,West,270,7.0,10.0,97,0.00,,,0.00,,2013-04-04 11:02:00,
2013-04-04 11:12:00,36.0,36.0,-100.00,WNW,285,7.0,10.0,97,0.00,,,0.00,,2013-04-04 11:12:00,
2013-04-04 11:22:00,36.0,36.0,-100.00,WNW,290,6.0,10.0,98,0.00,,,0.00,,2013-04-04 11:22:00,
2013-04-04 11:32:00,36.0,36.0,-100.00,WNW,285,5.0,9.0,98,0.00,,,0.00,,2013-04-04 11:32:00,
2013-04-04 11:42:00,36.0,36.0,-100.00,WNW,285,7.0,9.0,98,0.00,,,0.00,,2013-04-04 11:42:00,
2013-04-04 11:53:00,36.0,36.0,-100.00,WNW,290,7.0,9.0,98,0.00,,,0.00,,2013-04-04 11:53:00,
2013-04-04 12:22:00,36.0,36.0,-100.00,NW,320,7.0,12.0,98,0.00,,,0.00,,2013-04-04 12:22:00,
2013-04-04 12:32:00,36.0,36.0,-100.00,NW,315,11.0,14.0,97,0.00,,,0.00,,2013-04-04 12:32:00,
2013-04-04 12:42:00,36.0,34.0,-100.00,NW,310,10.0,14.0,95,0.00,,,0.00,,2013-04-04 12:42:00,
2013-04-04 12:52:00,36.0,34.0,-100.00,NW,310,9.0,14.0,94,0.00,,,0.00,,2013-04-04 12:52:00,
2013-04-04 13:02:00,36.0,34.0,-100.00,NW,310,9.0,14.0,94,0.00,,,0.00,,2013-04-04 13:02:00,
2013-04-04 13:12:00,36.0,34.0,-100.00,NW,315,9.0,13.0,93,0.00,,,0.00,,2013-04-04 13:12:00,
2013-04-04 13:22:00,37.0,34.0,-100.00,NW,315,11.0,14.0,91,0.00,,,0.00,,2013-04-04 13:22:00,
2013-04-04 13:32:00,37.0,34.0,-100.00,NW,310,13.0,16.0,89,0.00,,,0.00,,2013-04-04 13:32:00,
2013-04-04 13:42:00,37.0,34.0,-100.00,NW,325,11.0,16.0,88,0.00,,,0.00,,2013-04-04 13:42:00,
2013-04-04 13:52:00,37.0,34.0,-100.00,NW,325,9.0,17.0,86,0.00,,,0.00,,2013-04-04 13:52:00,
2013-04-04 14:03:00,38.0,34.0,-100.00,NW,315,12.0,16.0,84,0.00,,,0.00,,2013-04-04 14:03:00,
2013-04-04 14:12:00,38.0,34.0,-100.00,NW,315,11.0,16.0,84,0.00,,,0.00,,2013-04-04 14:12:00,
2013-04-04 14:22:00,39.0,34.0,-100.00,NW,315,10.0,16.0,81,0.00,,,0.00,,2013-04-04 14:22:00,
2013-04-04 14:32:00,38.0,32.0,-100.00,NNW,340,12.0,18.0,80,0.00,,,0.00,,2013-04-04 14:32:00,
2013-04-04 14:42:00,38.0,32.0,-100.00,NNW,330,14.0,21.0,80,0.00,,,0.00,,2013-04-04 14:42:00,
2013-04-04 14:52:00,38.0,32.0,-100.00,NNW,335,14.0,21.0,81,0.00,,,0.00,,2013-04-04 14:52:00,
2013-04-04 15:02:00,38.0,32.0,-100.00,NNW,335,13.0,19.0,80,0.00,,,0.00,,2013-04-04 15:02:00,
2013-04-04 15:12:00,39.0,32.0,-100.00,NW,325,11.0,18.0,79,0.00,,,0.00,,2013-04-04 15:12:00,
2013-04-04 15:22:00,38.0,32.0,-100.00,NNW,345,11.0,16.0,79,0.00,,,0.00,,2013-04-04 15:22:00,
2013-04-04 15:33:00,39.0,34.0,-100.00,NNW,330,11.0,17.0,79,0.00,,,0.00,,2013-04-04 15:33:00,
2013-04-04 15:43:00,39.0,32.0,-100.00,NW,320,10.0,15.0,78,0.00,,,0.00,,2013-04-04 15:43:00,
2013-04-04 15:53:00,40.0,34.0,-100.00,NNW,340,9.0,14.0,77,0.00,,,0.00,,2013-04-04 15:53:00,
2013-04-04 16:03:00,40.0,34.0,-100.00,NW,325,8.0,15.0,76,0.00,,,0.00,,2013-04-04 16:03:00,
2013-04-04 16:12:00,40.0,34.0,-100.00,NW,320,9.0,15.0,75,0.00,,,0.00,,2013-04-04 16:12:00,
2013-04-04 16:23:00,41.0,34.0,-100.00,NW,325,11.0,16.0,73,0.00,,,0.00,,2013-04-04 16:23:00,
2013-04-04 16:32:00,42.0,32.0,-100.00,NW,325,7.0,14.0,70,0.00,,,0.00,,2013-04-04 16:32:00,
2013-04-04 16:42:00,43.0,32.0,-100.00,NW,315,10.0,15.0,67,0.00,,,0.00,,2013-04-04 16:42:00,
2013-04-04 16:53:00,43.0,32.0,-100.00,NW,325,11.0,14.0,65,0.00,,,0.00,,2013-04-04 16:53:00,
2013-04-04 17:02:00,42.0,30.0,-100.00,NNW,330,11.0,16.0,64,0.00,,,0.00,,2013-04-04 17:02:00,
2013-04-04 17:13:00,43.0,30.0,-100.00,North,350,9.0,17.0,62,0.00,,,0.00,,2013-04-04 17:13:00,
2013-04-04 17:22:00,44.0,30.0,-100.00,NNW,345,11.0,15.0,60,0.00,,,0.00,,2013-04-04 17:22:00,
2013-04-04 17:33:00,44.0,30.0,-100.00,NW,325,12.0,18.0,59,0.00,,,0.00,,2013-04-04 17:33:00,
2013-04-04 17:42:00,45.0,32.0,-100.00,NW,320,10.0,16.0,59,0.00,,,0.00,,2013-04-04 17:42:00,
2013-04-04 17:52:00,45.0,32.0,-100.00,NNW,340,9.0,17.0,58,0.00,,,0.00,,2013-04-04 17:52:00,
2013-04-04 18:02:00,45.0,30.0,-100.00,North,0,9.0,16.0,57,0.00,,,0.00,,2013-04-04 18:02:00,
2013-04-04 18:12:00,45.0,30.0,-100.00,North,0,10.0,16.0,56,0.00,,,0.00,,2013-04-04 18:12:00,
2013-04-04 18:22:00,45.0,30.0,-100.00,NW,315,12.0,18.0,54,0.00,,,0.00,,2013-04-04 18:22:00,
2013-04-04 18:32:00,45.0,28.0,-100.00,NNW,330,12.0,16.0,53,0.00,,,0.00,,2013-04-04 18:32:00,
2013-04-04 18:42:00,45.0,30.0,-100.00,NNW,330,12.0,16.0,53,0.00,,,0.00,,2013-04-04 18:42:00,
2013-04-04 18:52:00,46.0,30.0,-100.00,NW,305,17.0,22.0,53,0.00,,,0.00,,2013-04-04 18:52:00,
2013-04-04 19:02:00,46.0,28.0,-100.00,NNW,335,15.0,23.0,51,0.00,,,0.00,,2013-04-04 19:02:00,
2013-04-04 19:12:00,46.0,28.0,-100.00,NNW,330,15.0,23.0,51,0.00,,,0.00,,2013-04-04 19:12:00,
2013-04-04 19:22:00,45.0,28.0,-100.00,NW,315,16.0,24.0,51,0.00,,,0.00,,2013-04-04 19:22:00,
2013-04-04 19:32:00,45.0,28.0,-100.00,NW,320,14.0,24.0,51,0.00,,,0.00,,2013-04-04 19:32:00,
2013-04-04 19:42:00,45.0,28.0,-100.00,NNW,330,16.0,21.0,52,0.00,,,0.00,,2013-04-04 19:42:00,
2013-04-04 19:52:00,46.0,30.0,-100.00,NNW,340,15.0,23.0,52,0.00,,,0.00,,2013-04-04 19:52:00,
2013-04-04 20:03:00,45.0,28.0,-100.00,NNW,335,12.0,21.0,52,0.00,,,0.00,,2013-04-04 20:03:00,
2013-04-04 20:12:00,46.0,28.0,-100.00,NW,320,14.0,20.0,52,0.00,,,0.00,,2013-04-04 20:12:00,
2013-04-04 20:22:00,47.0,30.0,-100.00,NNW,335,12.0,23.0,52,0.00,,,0.00,,2013-04-04 20:22:00,
2013-04-04 20:32:00,46.0,28.0,-100.00,NW,305,16.0,24.0,52,0.00,,,0.00,,2013-04-04 20:32:00,
2013-04-04 20:42:00,45.0,28.0,-100.00,NW,320,17.0,24.0,52,0.00,,,0.00,,2013-04-04 20:42:00,
2013-04-04 20:52:00,44.0,28.0,-100.00,NW,315,14.0,22.0,52,0.00,,,0.00,,2013-04-04 20:52:00,
2013-04-04 21:02:00,44.0,28.0,-100.00,NW,320,14.0,22.0,52,0.00,,,0.00,,2013-04-04 21:02:00,
2013-04-04 21:12:00,45.0,28.0,-100.00,NW,310,14.0,23.0,52,0.00,,,0.00,,2013-04-04 21:12:00,
2013-04-04 21:22:00,45.0,28.0,-100.00,NW,315,11.0,19.0,51,0.00,,,0.00,,2013-04-04 21:22:00,
2013-04-04 21:32:00,45.0,28.0,-100.00,North,0,8.0,18.0,51,0.00,,,0.00,,2013-04-04 21:32:00,
2013-04-04 21:43:00,44.0,28.0,-100.00,NNW,345,11.0,19.0,52,0.00,,,0.00,,2013-04-04 21:43:00,
2013-04-04 21:52:00,44.0,28.0,-100.00,NNW,340,11.0,17.0,52,0.00,,,0.00,,2013-04-04 21:52:00,
2013-04-04 22:03:00,44.0,27.0,-100.00,NNW,335,11.0,17.0,52,0.00,,,0.00,,2013-04-04 22:03:00,
2013-04-04 22:12:00,45.0,28.0,-100.00,NNW,340,11.0,19.0,52,0.00,,,0.00,,2013-04-04 22:12:00,
2013-04-04 22:23:00,44.0,27.0,-100.00,NW,320,10.0,17.0,52,0.00,,,0.00,,2013-04-04 22:23:00,
2013-04-04 22:33:00,44.0,27.0,-100.00,NNW,330,10.0,16.0,51,0.00,,,0.00,,2013-04-04 22:33:00,
2013-04-04 22:42:00,44.0,27.0,-100.00,North,350,13.0,18.0,50,0.00,,,0.00,,2013-04-04 22:42:00,
2013-04-04 22:53:00,44.0,27.0,-100.00,North,350,9.0,17.0,50,0.00,,,0.00,,2013-04-04 22:53:00,
2013-04-04 23:02:00,43.0,25.0,-100.00,NNW,345,12.0,16.0,50,0.00,,,0.00,,2013-04-04 23:02:00,
2013-04-04 23:12:00,44.0,27.0,-100.00,North,350,9.0,17.0,50,0.00,,,0.00,,2013-04-04 23:12:00,
2013-04-04 23:22:00,43.0,27.0,-100.00,NNW,330,11.0,16.0,51,0.00,,,0.00,,2013-04-04 23:22:00,
2013-04-04 23:32:00,43.0,27.0,-100.00,NW,320,11.0,17.0,52,0.00,,,0.00,,2013-04-04 23:32:00,
2013-04-04 23:42:00,42.0,27.0,-100.00,NNW,335,12.0,17.0,52,0.00,,,0.00,,2013-04-04 23:42:00,
2013-04-04 23:52:00,41.0,27.0,-100.00,NW,305,11.0,16.0,55,0.00,,,0.00,,2013-04-04 23:52:00,